Satellite: NOAA 17
Catalog number: 27453
Epoch time:      103024.11717562
Element set:     279 
Inclination:       98.7612 deg
RA of node:        95.4567 deg
Eccentricity:    0.0012659
Arg of perigee:    71.9492 deg
Mean anomaly:     288.3064 deg
Mean motion:   14.23278057 rev/day
Decay rate:    3.2499E-006 rev/day^2
Epoch rev:            3034
Checksum:              331

Satellite: HOT BIRD 6
Catalog number: 27499
Epoch time:      103013.80550721
Element set:     66 
Inclination:        0.0928 deg
RA of node:        32.8693 deg
Eccentricity:    0.0008090
Arg of perigee:   290.3889 deg
Mean anomaly:      92.5421 deg
Mean motion:    1.00271722 rev/day
Decay rate:    1.0600E-006 rev/day^2
Epoch rev:             147
Checksum:              269

Satellite: RUBIN 2
Catalog number: 27605
Epoch time:      103024.16024290
Element set:     37 
Inclination:       64.5535 deg
RA of node:       274.3943 deg
Eccentricity:    0.0030065
Arg of perigee:   120.8507 deg
Mean anomaly:     239.5553 deg
Mean motion:   14.71392659 rev/day
Decay rate:    8.2099E-006 rev/day^2
Epoch rev:             507
Checksum:              295

Satellite: STS-107     
Catalog number: 27647
Epoch time:      103024.54370370
Element set:     25 
Inclination:       39.0166 deg
RA of node:       176.5242 deg
Eccentricity:    0.0010144
Arg of perigee:    61.3683 deg
Mean anomaly:      91.3898 deg
Mean motion:   15.99850326 rev/day
Decay rate:    2.5606E-004 rev/day^2
Epoch rev:             127
Checksum:              296


Read previous mail | Read next mail


 11.06.2026 22:38:16lGo back Go up